TimeMST,TemperatureF,Dew PointF,Humidity,Sea Level PressureIn,VisibilityMPH,Wind Direction,Wind SpeedMPH,Gust SpeedMPH,PrecipitationIn,Events,Conditions,WindDirDegrees,DateUTC
12:41 AM,68.0,66.2,94,29.97,6.0,North,8.1,-,N/A,,Scattered Clouds,360,2012-11-27 07:41:00
1:46 AM,66.2,64.4,94,29.96,6.0,North,4.6,-,N/A,,Scattered Clouds,350,2012-11-27 08:46:00
2:41 AM,66.2,64.4,94,29.94,6.0,NNE,5.8,-,N/A,,Scattered Clouds,20,2012-11-27 09:41:00
3:52 AM,66.2,64.4,94,29.95,3.0,NE,6.9,-,N/A,,Mostly Cloudy,50,2012-11-27 10:52:00
4:43 AM,64.4,62.6,94,29.95,3.0,NE,6.9,-,N/A,,Mostly Cloudy,50,2012-11-27 11:43:00
5:50 AM,64.4,62.6,94,29.98,6.0,North,6.9,-,N/A,,Mostly Cloudy,10,2012-11-27 12:50:00
6:48 AM,64.4,62.6,94,30.01,5.0,North,6.9,-,N/A,Fog,Mostly Cloudy,10,2012-11-27 13:48:00
7:42 AM,68.0,66.2,94,30.02,10.0,North,6.9,-,N/A,,Mostly Cloudy,10,2012-11-27 14:42:00
8:52 AM,73.4,69.8,88,30.05,10.0,NE,6.9,-,N/A,,Mostly Cloudy,40,2012-11-27 15:52:00
9:44 AM,77.0,69.8,78,30.03,10.0,NNE,5.8,-,N/A,,Mostly Cloudy,20,2012-11-27 16:44:00
10:44 AM,82.4,68.0,62,30.02,10.0,SE,5.8,-,N/A,,Mostly Cloudy,140,2012-11-27 17:44:00
11:47 AM,84.2,68.0,58,29.99,12.0,SE,6.9,-,N/A,,Scattered Clouds,140,2012-11-27 18:47:00
12:50 PM,84.2,69.8,62,29.96,12.0,South,9.2,-,N/A,,Mostly Cloudy,180,2012-11-27 19:50:00
1:46 PM,84.2,68.0,58,29.94,12.0,SW,9.2,-,N/A,,Partly Cloudy,230,2012-11-27 20:46:00
2:48 PM,82.4,66.2,58,29.93,12.0,WSW,11.5,-,N/A,,Partly Cloudy,250,2012-11-27 21:48:00
3:43 PM,82.4,64.4,54,29.93,12.0,WSW,11.5,-,N/A,,Clear,250,2012-11-27 22:43:00
4:40 PM,80.6,64.4,58,29.91,12.0,WSW,9.2,-,N/A,,Clear,250,2012-11-27 23:40:00
5:45 PM,75.2,62.6,65,29.94,10.0,WNW,8.1,-,N/A,,Clear,290,2012-11-28 00:45:00
6:40 PM,73.4,62.6,69,29.95,10.0,NW,6.9,-,N/A,,Clear,320,2012-11-28 01:40:00
7:43 PM,66.2,60.8,83,29.98,10.0,WNW,6.9,-,N/A,,Clear,290,2012-11-28 02:43:00
8:46 PM,66.2,62.6,88,29.98,10.0,North,5.8,-,N/A,,Clear,10,2012-11-28 03:46:00
9:43 PM,66.2,60.8,83,29.98,10.0,North,5.8,-,N/A,,Clear,10,2012-11-28 04:43:00
10:51 PM,62.6,60.8,94,29.96,10.0,WSW,6.9,-,N/A,,Clear,250,2012-11-28 05:51:00
11:45 PM,62.6,60.8,94,29.98,10.0,NNE,4.6,-,N/A,,Clear,20,2012-11-28 06:45:00